{"data":{"norad_id":53649,"intl_designator":"2022-105B","name":"STARLINK-4386","alt_names":[],"object_type":"PAYLOAD","status":"ACTIVE","operator":null,"country":"US","launch_date":"2022-08-31","launch_site_code":"AFWTR","launch_vehicle":null,"mission":null,"orbit_class":"UNKNOWN","rcs_meters":null,"size_class":null,"mass_kg":null,"dimensions":null,"purposes":["comms"],"wikipedia_slug":null,"has_3d_model":false,"image_url":null,"decayed_at":null,"tle_current":{"epoch":"2026-09-20T21:34:01.362432Z","epoch_age_seconds":46895,"freshness":"FRESH","line1":"1 53649U 22105B   26263.89862688  .00394716  76714-4  49359-3 0  9993","line2":"2 53649  97.5799 156.4648 0002936 161.7482 198.3905 16.07688968223492","mean_motion":16.07688968,"eccentricity":0.0002936,"inclination_deg":97.5799,"raan_deg":156.4648,"arg_perigee_deg":161.7482,"mean_anomaly_deg":198.3905,"bstar":0.00049359,"rev_number":22349,"period_min":89.569564055129,"perigee_km":251.24369560369,"apogee_km":255.13761120177,"semimajor_km":6631.3276534027,"source":"CELESTRAK","updated_at":"2026-09-21T09:00:32.948789Z"}}}